Flag for Ukraine Weather past 2 weeks in Odesa, Ukraine

Now
66 °F

Broken clouds.


Feels Like: 66 °F
Forecast: 62 / 71 °F
Wind: 10 mph from South

Location: Odesa Airport

Current Time: Sep 21, 2014 at 5:24:37 PM

Latest Report: Sep 21, 2014 at 5:00 PM


Visibility: N/A

Pressure: 29.95 "Hg

Humidity: 60%

Dew point: 52 °F

Location of OdesaLocation

Historic Weather in Odesa — Graph

°F

Odesa temperature yesterday

Maximum temperature yesterday: 70 °F (at 12:30 PM)
Minimum temperature yesterday: 48 °F (at 7:00 AM)
Average temperature yesterday: 60 °F

Past Weeks' High & Low Weather Summary

 TemperatureHumidityPressure
High86 °F (Sep 8, 2:00 PM)94% (Sep 12, 2:30 AM)30.24 "Hg (Sep 12, 2:30 AM)
Low48 °F (Sep 19, 6:30 AM)17% (Sep 19, 1:30 PM)29.83 "Hg (Sep 6, 7:00 PM)
Average68 °F51%30.04 "Hg
* Reported Sep 6 4:00 PM — Sep 21 4:30 PM, Odesa, Weather by CustomWeather, © 2014

Note: Actual official high and low records may vary slightly from our data, if they occured in-between our weather recording intervals... More about our weather records

Advertising

Odesa weather history for previous 24 hours

 ConditionsComfort  
Time TempWeatherWind HumidityBarometerVisibility
4:30 PM
Sep 21
66 °FPartly sunny.13 mph60%29.98 "HgN/A
4:00 PM68 °FPartly sunny.13 mph60%29.98 "HgN/A
3:30 PM68 °FPartly sunny.13 mph60%29.98 "HgN/A
3:00 PM68 °FPartly sunny.13 mph60%29.98 "HgN/A
2:30 PM68 °FPartly sunny.10 mph49%29.98 "HgN/A
2:00 PM70 °FBroken clouds.13 mph50%30.01 "HgN/A
1:30 PM68 °FBroken clouds.13 mph53%30.01 "HgN/A
1:00 PM70 °FBroken clouds.15 mph50%30.01 "HgN/A
12:30 PM68 °FBroken clouds.17 mph56%30.01 "HgN/A
12:00 PM68 °FBroken clouds.15 mph53%30.01 "HgN/A
11:30 AM70 °FBroken clouds.17 mph53%30.01 "HgN/A
11:00 AM68 °FBroken clouds.15 mph53%30.04 "HgN/A
10:30 AM66 °FBroken clouds.17 mph56%30.04 "HgN/A
10:00 AM66 °FBroken clouds.15 mph56%30.04 "HgN/A
9:30 AM66 °FBroken clouds.17 mph60%30.04 "HgN/A
9:00 AM66 °FBroken clouds.15 mph60%30.04 "HgN/A
8:30 AM66 °FPartly sunny.15 mph56%30.04 "HgN/A
8:00 AM64 °FPartly sunny.15 mph60%30.04 "HgN/A
7:30 AM64 °FPassing clouds.13 mph64%30.04 "HgN/A
7:00 AM63 °FPartly cloudy.10 mph68%30.04 "HgN/A
6:30 AM64 °FPartly cloudy.10 mph73%30.04 "HgN/A
5:30 AM61 °FPassing clouds.6 mph83%30.04 "HgN/A
5:00 AM59 °FPassing clouds.No wind82%30.04 "HgN/A
4:30 AM57 °FPassing clouds.No wind88%30.04 "HgN/A
4:00 AM59 °FPassing clouds.No wind82%30.04 "HgN/A
3:30 AM59 °FPassing clouds.No wind77%30.04 "HgN/A
3:00 AM59 °FPassing clouds.No wind82%30.04 "HgN/A
2:30 AM57 °FPassing clouds.No wind82%30.04 "HgN/A
2:00 AM54 °FClear.No wind82%30.07 "Hg10 mi
1:30 AM52 °FClear.No wind88%30.07 "Hg10 mi
1:00 AM54 °FClear.No wind82%30.07 "Hg10 mi
12:30 AM54 °FClear.No wind77%30.07 "Hg10 mi
11:30 PM
Sep 20
55 °FClear.No wind63%30.09 "Hg10 mi
11:00 PM55 °FClear.No wind59%30.09 "Hg10 mi
10:30 PM55 °FClear.No wind59%30.09 "Hg10 mi
10:00 PM54 °FClear.No wind58%30.09 "Hg10 mi
9:30 PM55 °FClear.No wind59%30.09 "Hg10 mi
9:00 PM59 °FClear.No wind55%30.09 "Hg10 mi
8:30 PM59 °FClear.No wind51%30.09 "Hg10 mi
Weather by CustomWeather, © 2014

See weather overviewHow to use our weather pages